Location: Asheville, NC
(35.6000°N, 82.5500°W)
Time: 00:39:09
(UTC-04:00)

Vanguard 3 - Pass Details

Date: 16 March 2018
Orbit: 508 x 3264 km, 33.3° (Epoch: 18 June)

Event Time Altitude Azimuth Distance (km) Brightness Sun altitude
Rises 08:10:19 0° 231° (SW) 6,804 11.4 5.4°
Reaches altitude 10° 08:14:41 10° 228° (SW) 5,980 11.2 6.3°
Maximum altitude 08:33:54 60° 155° (SSE) 3,480 10.8 10.2°
Drops below altitude 10° 08:50:18 10° 81° (E) 5,216 12.9 13.5°
Sets 08:53:46 0° 78° (ENE) 5,931 12.8 14.1°
